Temp
14 15 15 16 17 19 19 15 16 17 17 15 10 14 17 17 17 17 17 17 17 17 16 16 17 16 16 15 16 16 15 13 15 17 15 15 16 16 15 15 15 13 12 15
14 14 15 16 17 18 19 14 14 17 17 13 10 15 16 16 18 16 17 17 16 15 15 16 16 16 15 14 16 16 15 14 15 16 16 16 16 15 13 12 12 14 13 16
14 14 15 16 17 18 18 12 13 12 10 11 14 15 16 17 16 15 15 16 16 15 15 14 15 15 15 14 14 12 14 13 14 16 16 15 14 14 13 14 13 14 14 16
13 14 15 16 17 18 18 10 12 12 12 13 14 15 16 16 17 16 15 16 16 16 14 14 14 15 15 14 13 13 14 14 13 13 14 13 14 14 14 13 14 13 15 15
13 14 15 16 17 18 17 13 12 10 10 13 15 12 16 16 16 17 16 15 15 15 15 15 15 15 14 15 14 13 11 13 11 11 11 11 11 13 12 13 13 13 14 13
13 13 14 16 17 18 15 11 12 12 7 10 12 12 15 16 15 15 15 14 14 14 15 15 15 13 12 14 14 13 12 11 10 12 10 10 12 13 12 13 13 14 14 16
12 13 14 15 16 17 17 14 13 10 10 8 11 14 15 14 16 15 14 14 12 14 12 12 11 10 10 11 11 11 8 9 9 11 11 13 16 14 14 14 14 14 13 13
12 12 13 14 15 16 17 15 13 9 7 7 11 14 13 13 13 13 14 12 11 11 11 10 10 10 10 8 8 9 9 8 9 10 12 12 14 15 14 13 14 13 12 12
11 12 13 13 15 15 16 14 15 10 7 10 13 13 13 11 10 11 11 10 9 9 7 9 10 12 10 13 11 8 8 7 10 9 11 12 13 13 12 12 13 12 12 12
11 11 12 13 14 15 16 14 15 14 8 10 12 12 12 10 10 10 9 11 10 9 7 8 10 12 9 12 9 8 7 8 10 11 10 11 12 11 12 12 11 11 12 12
10 11 11 12 13 14 15 13 15 15 7 10 12 12 11 10 10 10 10 10 8 7 8 8 8 8 9 10 10 10 11 11 9 8 9 10 11 12 12 12 10 10 10 9
10 11 11 12 12 13 14 14 14 15 12 11 12 13 13 14 13 10 7 11 9 8 7 6 6 7 5 8 11 9 11 11 11 10 11 11 12 13 11 10 9 7 7 6
10 10 11 11 12 13 14 13 14 14 5 9 11 11 12 13 14 14 11 6 9 8 8 6 6 9 7 9 8 8 10 10 10 10 12 12 12 12 9 8 7 7 7 6
10 10 10 11 11 12 13 13 13 14 5 5 9 11 12 12 13 13 13 11 9 6 6 5 6 7 9 8 10 10 11 10 10 9 12 12 10 10 8 7 7 6 7 7
10 9 10 10 11 11 12 12 12 13 12 7 6 9 10 11 12 12 12 11 7 7 7 6 8 6 7 6 7 8 10 11 10 11 12 10 10 9 7 7 7 7 7 7
10 9 10 10 10 10 11 8 11 12 12 5 7 6 6 8 9 10 9 9 7 7 8 6 7 8 9 8 8 10 11 11 12 11 10 9 7 7 7 7 7 7 6 6
9 9 9 9 10 10 10 8 10 10 12 4 6 6 4 6 6 4 6 6 7 8 7 6 7 7 9 6 9 11 10 10 10 9 9 7 7 7 7 7 6 6 5 5
9 9 9 9 9 9 9 10 9 10 9 6 6 7 5 6 4 5 3 5 6 7 8 5 6 6 6 8 9 7 8 8 7 6 6 7 6 6 6 6 6 5 5 4
9 9 8 7 8 7 8 9 9 9 8 7 5 7 8 5 4 3 3 4 6 5 5 5 6 7 8 7 6 6 5 6 5 5 6 6 6 6 6 5 5 5 5 4
8 7 6 4 5 7 7 7 5 4 3 4 5 5 7 7 4 5 6 4 6 7 6 5 5 7 6 5 5 5 5 6 6 6 6 6 5 5 4 4 4 3 3 2
6 3 3 4 5 5 4 4 5 4 5 4 4 4 6 4 6 6 3 5 5 6 5 6 6 6 5 4 4 4 4 4 5 5 5 4 3 3 3 2 2 1 1 1
6 5 5 5 5 4 5 5 4 5 6 4 4 4 5 3 4 5 3 5 4 4 3 5 6 5 4 4 4 4 4 4 4 4 3 2 2 2 1 1 1 1 1 0
5 4 3 5 3 6 6 6 5 6 4 3 3 4 3 3 3 3 4 4 4 1 3 4 4 4 3 3 3 4 4 4 3 2 3 2 2 2 1 -0 0 0 -1 -1
3 4 5 5 5 5 3 3 3 2 3 3 3 3 3 1 3 2 3 1 1 4 3 3 3 4 4 3 2 3 3 1 -0 1 1 1 0 -0 1 0 -0 -1 -2 -2
2 3 4 4 1 2 2 2 3 2 2 2 2 2 3 1 2 1 1 2 3 3 3 2 2 3 3 3 3 3 -0 -1 -1 1 0 0 0 -1 -1 -0 -1 -2 -2 -2
1 -1 0 0 1 2 3 3 3 2 1 1 1 1 2 2 1 1 1 2 2 2 -0 0 1 2 2 2 2 1 1 1 0 0 0 0 -0 -1 -1 -1 -1 -1 -1 -2
-1 -2 -2 -2 -2 1 2 2 2 2 2 2 1 2 3 -1 -0 0 -0 -0 1 -1 -0 -1 -0 2 2 2 1 1 1 0 1 1 0 -0 0 -1 -2 -3 -1 -0 -2 -3
Height
798 796 795 792 791 790 792 794 807 799 799 814 833 829 821 820 824 823 826 830 835 841 846 851 852 855 854 854 851 856 859 866 864 857 857 856 856 860 864 868 874 877 882 858
798 797 795 793 791 790 791 800 803 800 799 829 841 825 824 824 824 830 829 835 836 841 849 855 853 854 855 855 853 856 857 868 869 861 861 858 858 860 868 874 878 871 876 849
798 797 795 793 793 791 792 800 815 808 808 819 820 825 827 829 826 832 834 838 837 844 852 853 856 857 855 855 855 859 857 868 867 865 860 862 865 863 865 863 869 862 856 844
798 798 796 794 793 792 792 803 815 815 826 823 820 821 824 829 832 831 834 839 840 844 857 857 859 857 856 856 857 858 859 865 868 864 861 863 858 858 859 861 855 862 844 844
798 798 796 795 794 792 793 804 811 818 825 821 820 830 826 830 833 832 836 840 843 844 851 852 858 855 858 857 857 860 866 867 872 872 870 868 865 851 855 854 852 854 848 843
798 798 797 797 795 794 795 801 804 806 837 830 828 832 827 829 830 836 835 839 846 852 848 847 848 852 856 855 857 863 867 873 879 869 879 872 857 845 846 844 843 840 842 829
799 799 798 797 796 795 795 798 800 813 836 838 831 825 825 831 829 835 839 840 847 847 846 850 855 860 862 862 866 865 882 882 886 873 874 866 832 836 836 839 834 834 836 836
799 799 799 799 798 797 795 798 800 812 842 839 830 827 830 833 836 839 840 844 848 846 851 863 869 868 869 874 875 873 872 881 881 875 867 859 837 829 833 836 832 834 835 837
799 799 799 800 799 799 799 799 800 803 827 831 823 828 830 841 845 847 847 849 849 850 868 872 875 868 873 861 867 879 879 883 874 881 869 858 836 835 836 836 834 836 836 832
798 799 800 800 800 801 801 801 802 803 822 823 823 828 832 836 843 848 853 848 852 855 872 879 875 866 876 865 878 882 883 883 875 869 869 852 839 838 836 843 843 839 835 832
799 800 800 801 801 801 801 804 804 805 818 822 820 821 828 834 838 844 850 853 858 866 872 875 877 880 871 871 866 867 861 866 875 880 872 860 837 838 840 838 836 836 833 835
799 799 801 801 802 803 803 804 806 806 809 819 820 821 822 824 825 835 847 843 848 852 866 877 881 878 888 873 859 864 859 853 852 858 845 835 836 833 834 837 838 839 840 841
798 800 801 802 803 804 804 805 806 808 815 822 821 823 824 824 825 826 836 847 842 847 848 861 869 865 869 867 867 862 852 850 850 852 835 831 830 832 837 838 838 838 839 839
796 799 800 802 804 805 805 806 807 809 818 833 827 822 823 824 824 826 827 830 837 843 850 859 864 863 854 859 848 849 842 847 843 842 829 828 829 830 832 835 837 838 837 836
794 797 800 802 804 806 807 807 809 810 814 829 829 822 823 823 823 825 826 829 835 844 851 855 854 854 854 856 855 848 840 836 838 829 824 828 828 831 835 836 836 834 835 834
792 796 799 802 804 806 807 810 810 811 812 822 831 827 824 823 823 825 827 829 833 837 840 847 844 838 842 847 842 833 828 826 825 825 829 830 830 834 835 835 835 834 834 832
789 794 797 801 803 805 808 811 809 810 812 821 831 830 827 826 826 829 830 831 832 833 837 840 839 839 838 844 834 825 825 826 825 825 826 832 834 835 836 836 835 833 831 828
785 791 795 799 801 804 807 808 808 811 813 819 829 828 832 828 832 833 834 834 833 832 832 838 837 838 838 831 824 828 828 826 826 827 826 830 835 837 836 833 830 828 826 824
780 787 793 796 798 799 801 806 809 811 815 819 825 823 824 828 832 834 835 835 834 837 837 838 837 833 828 831 833 831 829 828 832 833 834 835 835 834 832 831 829 826 822 820
776 784 791 794 795 798 803 806 811 811 814 818 817 821 822 824 832 833 834 836 834 832 836 838 835 829 832 834 834 834 833 830 833 834 835 834 833 832 831 829 826 824 821 818
773 782 790 795 796 798 803 810 813 817 817 819 820 821 818 825 827 830 836 834 837 834 837 834 832 828 832 834 835 835 833 833 835 834 834 834 833 831 828 824 822 819 816 813
778 781 789 794 798 802 807 808 815 813 811 819 819 821 822 828 828 831 837 834 840 842 846 838 828 831 833 833 833 834 834 834 833 832 832 830 828 826 824 821 818 815 811 806
781 784 792 795 802 798 798 801 806 809 816 820 820 823 826 829 830 833 837 838 839 849 842 834 832 831 833 834 834 834 833 831 831 829 828 826 824 821 820 817 813 810 805 800
786 790 793 798 801 801 808 809 811 816 815 817 820 826 827 834 833 838 836 848 849 839 844 833 832 830 831 832 833 833 831 829 828 825 823 821 820 816 811 810 808 805 799 794
790 793 799 803 810 808 808 809 811 815 816 817 822 828 831 838 839 843 846 843 840 837 830 829 828 829 830 830 829 829 828 826 824 822 820 817 815 813 808 804 801 798 793 790
794 803 809 811 812 811 809 810 812 815 817 820 824 832 831 834 839 841 842 842 838 827 832 828 828 827 827 827 826 824 823 822 820 818 816 813 810 807 803 798 795 792 789 785
801 808 806 809 812 808 809 810 811 814 818 821 828 827 826 843 842 841 840 836 827 826 825 825 825 824 823 822 820 818 817 816 815 814 811 807 804 802 799 794 789 787 784 781
Wind_Speed
10 13 16 18 17 4 5 4 3 4 4 4 1 3 5 2 2 5 4 4 4 3 3 4 3 3 1 5 1 2 1 2 1 2 1 1 1 3 3 2 2 1 0 7
9 12 14 17 18 5 3 3 1 3 2 3 1 1 3 3 2 4 3 3 3 3 3 4 3 3 1 5 3 1 2 2 2 2 2 2 1 2 4 4 2 7 3 6
7 10 13 15 16 9 2 3 2 4 4 1 6 5 2 4 4 4 5 4 3 4 4 5 3 2 2 3 2 6 4 2 4 4 3 2 4 4 5 4 4 4 12 18
6 9 11 13 15 9 2 3 1 1 1 3 4 3 3 4 3 3 4 4 3 5 3 2 2 1 2 2 1 3 2 3 3 4 8 5 10 12 11 12 12 7 13 15
5 8 10 12 13 7 5 4 4 3 2 2 4 4 1 4 3 2 2 6 2 3 4 4 4 3 2 3 1 2 2 2 1 3 5 4 8 14 12 13 13 13 18 20
3 6 9 10 11 5 4 3 3 4 4 2 4 2 4 5 5 5 2 9 5 4 5 4 1 2 3 2 3 2 0 3 1 3 5 8 7 4 4 3 5 4 6 8
1 4 7 9 11 7 4 3 4 4 1 2 3 3 3 5 2 7 3 3 5 2 5 4 4 6 6 3 4 1 4 3 1 2 4 1 3 2 5 7 13 8 8 6
1 2 5 7 9 8 5 5 3 3 2 1 3 6 6 5 5 4 4 3 1 4 5 3 5 4 5 3 7 4 3 4 2 2 3 6 11 6 2 4 7 3 4 8
2 1 3 6 7 6 9 11 7 5 6 4 3 4 3 4 3 3 3 3 4 5 3 3 2 2 3 3 2 5 4 3 1 2 3 5 4 1 2 3 6 3 8 15
4 2 2 4 6 5 4 7 6 4 4 2 3 3 5 4 3 3 1 3 3 3 2 2 3 3 1 2 2 2 1 1 4 6 5 8 6 4 2 2 3 4 9 14
6 4 2 3 4 4 4 7 6 3 3 2 3 5 5 3 2 4 4 3 2 3 3 3 3 3 3 2 2 3 3 3 4 2 4 7 2 2 1 3 6 9 9 5
8 6 3 2 3 3 4 4 6 8 8 3 3 4 5 2 7 5 1 3 4 4 4 2 3 3 2 3 3 0 4 5 2 7 6 2 3 8 3 2 2 4 3 1
11 9 6 3 3 4 3 7 6 5 3 3 3 2 2 3 3 3 4 2 3 3 1 4 2 4 4 4 6 2 3 4 4 1 7 12 9 3 4 2 3 3 2 2
12 11 9 6 3 3 4 4 6 7 7 4 3 2 2 2 4 4 3 9 8 8 2 3 3 2 4 4 3 5 5 4 4 6 15 10 2 2 3 4 4 3 6 7
16 13 11 9 6 4 4 5 4 4 3 4 2 5 1 2 4 8 8 15 5 3 2 2 3 2 2 1 1 5 5 7 4 6 8 4 5 4 2 5 3 1 5 8
19 17 14 12 9 7 3 3 7 7 5 4 1 3 4 5 4 6 7 9 3 3 4 3 3 3 3 3 3 5 6 7 8 7 2 1 4 6 6 1 2 4 7 10
22 19 16 14 10 9 3 3 2 11 7 3 2 3 3 4 4 4 3 3 1 2 3 3 3 2 4 2 3 4 2 5 3 1 4 5 3 4 3 5 7 9 11 12
25 20 18 16 17 14 6 3 12 14 7 4 3 3 2 2 1 1 3 1 0 1 0 1 2 1 0 4 1 5 6 6 6 7 8 8 10 5 3 6 8 9 9 11
27 20 17 11 7 6 7 14 17 6 2 4 3 4 3 3 1 1 1 1 1 1 0 1 1 2 4 1 3 5 6 0 8 9 9 5 1 5 7 8 9 9 10 12
28 18 5 1 5 16 17 5 1 3 2 1 2 1 2 2 1 1 1 2 2 2 1 1 2 2 5 3 2 2 5 10 6 4 1 3 5 7 8 9 12 12 15 18
5 3 2 7 13 4 3 2 2 1 1 1 1 0 3 2 2 2 1 1 1 2 0 2 1 2 2 3 4 3 7 8 6 3 2 5 6 8 9 10 13 15 18 17
8 14 10 5 1 3 3 2 2 2 3 1 2 1 2 1 1 2 1 2 1 3 1 2 2 1 2 3 2 2 4 2 3 4 5 9 9 11 12 13 15 19 24 27
8 4 4 1 2 2 4 4 2 3 3 3 2 2 2 2 2 3 2 2 2 1 1 3 2 3 2 2 2 2 2 6 8 9 12 13 16 19 18 17 23 25 23 26
3 2 4 2 1 1 3 3 3 1 2 4 3 2 2 1 2 1 3 1 1 2 2 5 2 4 4 3 2 2 5 11 10 12 13 15 17 19 23 22 23 23 23 27
3 3 3 1 1 2 1 2 3 1 3 3 3 3 1 1 3 2 2 2 3 4 4 2 3 3 3 3 3 5 5 10 11 12 12 18 21 20 22 24 24 23 24 25
3 4 3 1 2 1 1 2 3 1 2 2 3 3 2 1 3 3 5 5 5 3 2 2 1 2 3 4 7 12 15 15 15 16 17 19 20 19 20 25 24 24 24 26
3 2 2 2 2 2 2 1 2 5 2 2 2 3 3 3 2 2 4 5 3 3 3 2 4 4 5 10 12 15 16 15 16 19 20 19 21 21 20 15 21 26 24 23
Wind_Direction
9 9 14 17 18 146 164 102 77 1 153 53 26 119 142 157 15 36 68 87 83 93 70 70 92 119 75 333 279 50 8 133 280 139 116 322 115 129 98 123 222 202 8 269
2 5 10 15 17 60 143 96 149 15 149 122 6 207 71 82 79 32 71 83 60 52 91 100 77 91 96 8 53 110 182 24 359 28 34 17 95 167 112 104 94 227 223 267
0 3 7 13 14 27 90 91 64 345 48 48 124 124 83 104 44 69 65 96 82 87 56 25 116 85 50 9 79 52 86 126 174 215 226 191 248 216 190 180 238 249 242 273
0 0 5 9 9 14 103 41 197 179 178 357 102 100 111 112 112 80 45 51 72 128 105 63 96 181 335 46 18 58 94 224 207 259 269 277 273 254 229 224 233 242 273 276
360 2 5 5 7 4 79 124 135 43 58 10 88 14 99 130 127 78 46 115 126 96 126 155 189 171 210 227 41 87 27 242 61 289 335 320 284 274 252 238 247 250 261 268
11 9 8 6 9 8 97 124 105 102 330 46 86 205 159 166 121 33 102 137 104 90 176 165 111 133 96 145 163 148 132 139 115 269 328 310 291 242 186 202 207 237 263 301
26 24 14 18 20 33 97 120 114 86 266 90 142 147 99 133 103 134 110 93 101 195 94 91 57 53 50 56 30 15 134 99 138 292 337 267 256 234 238 250 273 265 280 334
184 43 27 30 33 33 102 109 110 114 110 171 34 110 110 91 52 69 107 40 27 114 54 60 23 349 21 33 38 52 130 135 184 244 221 305 296 289 142 174 284 42 38 346
178 78 40 41 47 55 86 73 81 100 119 242 146 118 134 137 109 36 79 62 31 64 75 65 116 250 228 312 32 35 61 71 143 161 253 268 250 356 12 152 286 142 353 339
181 150 68 54 62 73 92 75 70 92 104 245 130 145 163 122 92 111 350 158 49 30 83 103 169 236 227 258 205 281 318 331 243 249 256 267 262 298 256 13 322 274 311 308
192 173 128 81 73 84 108 86 65 79 101 253 181 152 126 97 104 140 178 83 3 74 90 146 192 196 211 186 228 196 236 205 217 169 238 277 203 274 244 323 293 269 314 19
198 186 165 95 79 92 120 105 89 80 86 154 140 106 102 121 175 133 27 166 160 167 98 165 128 203 186 186 233 299 272 201 197 186 230 262 236 282 349 315 358 15 60 291
205 198 184 149 94 76 120 122 117 90 82 19 90 114 112 166 154 142 122 274 150 158 110 146 150 214 142 184 225 214 262 184 224 205 239 259 269 304 89 124 147 204 53 230
207 208 201 188 161 120 117 125 111 95 95 111 274 353 129 157 197 187 144 134 112 100 95 119 152 184 180 210 241 201 232 174 223 248 286 279 244 204 188 174 89 156 224 267
210 208 202 191 183 166 128 115 116 120 132 170 245 299 19 329 213 180 160 146 118 138 120 131 211 189 167 194 0 240 178 224 222 262 300 301 6 28 99 137 178 293 324 310
208 208 204 195 184 167 136 19 201 174 125 96 55 350 3 13 63 125 137 158 120 147 157 190 214 243 155 193 221 244 233 245 247 283 29 292 75 113 145 123 355 335 318 312
208 208 199 200 189 181 183 187 141 163 137 88 356 335 317 15 50 44 46 46 134 154 184 189 182 200 157 206 249 214 347 342 305 65 131 103 166 137 72 13 335 316 297 298
201 198 198 190 195 198 201 178 148 149 106 83 138 254 23 17 66 82 353 104 319 41 204 59 183 50 144 243 183 344 314 321 55 43 61 88 93 70 331 286 289 300 299 303
192 193 189 167 181 160 165 171 168 170 131 167 137 155 212 134 104 112 59 71 95 7 177 232 115 193 217 307 319 337 333 129 117 89 99 106 24 268 285 306 309 296 294 299
174 142 146 92 164 133 122 108 68 38 344 38 132 74 150 118 115 40 124 30 138 210 231 314 215 250 115 36 60 52 85 106 125 112 40 316 320 323 312 300 298 296 292 295
99 97 83 118 130 99 43 81 95 180 131 139 147 138 132 6 126 159 72 161 129 230 212 224 235 239 134 116 119 80 75 79 72 70 339 324 298 298 308 315 315 307 302 297
93 107 107 80 23 74 132 151 125 206 164 149 126 132 79 59 70 105 148 144 118 234 341 232 239 186 141 140 112 110 116 74 337 322 314 318 313 320 315 309 311 310 307 309
110 81 87 164 348 103 156 161 98 136 159 159 156 94 96 78 57 80 110 147 204 84 204 240 236 155 152 168 184 175 302 315 316 320 325 323 319 318 315 307 313 314 306 308
77 100 101 74 163 195 168 155 144 174 125 123 93 74 85 35 82 102 124 95 118 197 234 229 193 187 179 196 204 256 292 308 312 305 307 309 310 307 316 317 319 316 303 308
86 70 105 137 61 56 81 115 110 75 126 116 112 90 88 48 99 43 106 130 235 220 232 211 195 194 201 223 248 285 277 293 301 306 304 307 312 308 307 318 321 318 316 317
79 76 104 156 102 122 114 90 113 133 102 75 57 104 119 144 125 140 202 169 223 240 212 210 187 202 219 240 261 278 290 296 296 299 301 303 301 302 304 313 323 328 326 316
57 57 70 90 87 152 119 112 121 118 97 150 131 140 192 106 107 219 192 207 214 198 207 210 211 211 244 264 280 289 295 296 298 300 300 301 311 315 311 302 315 318 317 313